This demonstration page uses our WeatherBlox Daily Observations layout. Learn more.

Left ArrowRight Arrow

Hourly Observations for October 29, 2015

Temp ( °F °C ) Dew Point ( °F °C ) Humidity (%) Winds ( mph kmh ) Pressure ( in mb ) Visibility ( mi km ) Precip ( " mm )
12:53 am 00:53 Clear 24 -4.4 20 -6.7 84 84 Calm 29.91 1013 10 16 0.00 0.00
1:53 am 01:53 Clear 22 -5.6 19 -7.2 89 89 E 5 7 29.91 1013 10 16 0.00 0.00
2:53 am 02:53 Clear 18 -7.8 16 -8.9 92 92 SW 3 6 29.91 1013 10 16 0.00 0.00
3:53 am 03:53 Clear 19 -7.2 16 -8.9 88 88 Calm 29.90 1013 10 16 0.00 0.00
4:53 am 04:53 Clear 18 -7.8 16 -8.9 92 92 W 5 7 29.91 1013 10 16 0.00 0.00
5:53 am 05:53 Clear 17 -8.3 15 -9.4 92 92 SSW 6 9 29.91 1013 10 16 0.00 0.00
6:53 am 06:53 Clear 19 -7.2 17 -8.3 92 92 SW 7 11 29.91 1013 10 16 0.00 0.00
7:53 am 07:53 Clear 18 -7.8 16 -8.9 92 92 WSW 5 7 29.91 1013 10 16 0.00 0.00
8:53 am 08:53 Sunny 21 -6.1 18 -7.8 88 88 Calm 29.91 1013 10 16 0.00 0.00
9:53 am 09:53 Sunny 26 -3.3 22 -5.6 84 84 Calm 29.90 1013 10 16 0.00 0.00
10:53 am 10:53 Sunny 29 -1.7 24 -4.4 82 82 Calm 29.89 1012 10 16 0.00 0.00
11:53 am 11:53 Sunny 34 1.1 27 -2.8 76 76 SW 3 6 29.88 1012 10 16 0.00 0.00
12:53 pm 12:53 Sunny 46 8 30 -1 53 53 WSW 12 19 29.77 1008 10 16 0.00 0.00
1:53 pm 13:53 Sunny 48 8.9 30 -1.1 50 50 SW 14 22 29.82 1010 10 16 0.00 0.00
2:53 pm 14:53 Sunny 48 8.9 31 -0.6 52 52 SW 14 22 29.81 1010 10 16 0.00 0.00
3:53 pm 15:53 Cloudy 50 10 33 0.6 52 52 SSW 12 19 29.80 1009 10 16 0.00 0.00
4:53 pm 16:53 Cloudy 51 10.6 34 1.1 52 52 SW 10 17 29.79 1009 10 16 0.00 0.00
5:53 pm 17:53 Partly Cloudy 50 10 34 1.1 54 54 SSW 14 22 29.78 1009 10 16 0.00 0.00
6:53 pm 18:53 Cloudy 50 10 34 1.1 54 54 SW 14 22 29.78 1008 10 16 0.00 0.00
7:53 pm 19:53 Mostly Cloudy 47 8.3 33 0.6 59 59 SW 14 22 29.78 1009 10 16 0.00 0.00
8:53 pm 20:53 Partly Cloudy 46 7.8 32 0 58 58 W 14 22 29.79 1009 10 16 0.00 0.00
9:53 pm 21:53 Clear 40 4.4 31 -0.6 70 70 SW 7 11 29.80 1009 10 16 0.00 0.00
10:53 pm 22:53 Clear 41 5 31 -0.6 67 67 SW 17 28 29.80 1009 10 16 0.00 0.00
11:53 pm 23:53 Clear 38 3.3 29 -1.7 70 70 SW 15 24 29.80 1009 10 16 0.00 0.00

Powered by AerisWeather